Regional Weather Roundup
Issued by NWS Upton, NY

Current Version | Previous Version | Graphics & Text | Print | Product List | Glossary Off
Versions: 1 2 3 4 5 6 7 8 9 10 11 12 13 14 15 16 17 18 19 20 21 22 23 24 25 26 27

000
ASUS41 KOKX 301504
RWROKX

REGIONAL WEATHER ROUNDUP
NATIONAL WEATHER SERVICE NEW YORK NY
1100 AM EDT SAT APR 30 2016

NOTE: "FAIR" INDICATES FEW OR NO CLOUDS BELOW 12,000 FEET WITH NO
SIGNIFICANT WEATHER AND/OR OBSTRUCTIONS TO VISIBILITY.

NYZ071-072-176-178-NJZ106-104-301600-
NEW YORK CITY METRO AREA


CITY           SKY/WX    TMP DP  RH WIND       PRES   REMARKS
CENTRAL PARK   CLOUDY    56  37  49 VRB7      30.22F
LAGUARDIA APRT PTSUNNY   55  39  54 VRB3      30.20F
KENNEDY INTL   PTSUNNY   57  38  48 VRB3      30.21F
NEWARK/LIBERTY MOSUNNY   56  39  53 NE7       30.20F
BRNX BOT. GARD   N/A     55  39  54 CALM      30.20F
TETERBORO      CLOUDY    56  37  49 VRB3      30.19F
$$

NYZ177-179-078>081-301600-
LONG ISLAND NEW YORK

CITY           SKY/WX    TMP DP  RH WIND       PRES   REMARKS
FARMINGDALE    SUNNY     56  40  55 SE3       30.20F
ISLIP          MOSUNNY   59  37  44 NE13      30.19F
SHIRLEY        SUNNY     59  35  40 VRB5      30.21F
RIVERHEAD        N/A     54  41  62 NE8       30.21F
WESTHAMPTON    SUNNY     57  36  45 VRB6      30.22F
EAST HAMPTON   FAIR      53  33  46 W6        30.21F
MONTAUK POINT    N/A     53  36  52 VRB5      30.24R
$$

NYZ052-065-067-301600-
HUDSON VALLEY

CITY           SKY/WX    TMP DP  RH WIND       PRES   REMARKS
WHITE PLAINS   MOSUNNY   56  39  53 E3        30.18F
NEWBURGH       NOT AVBL
MONTGOMERY     SUNNY     55  43  63 VRB3      30.19F
POUGHKEEPSIE   MOSUNNY   57  42  57 CALM      30.20F
ALBANY         MOSUNNY   57  26  30 VRB5      30.21F
$$

NJZ001-105-106-008-010-013-015-019>022-104-301600-
NEW JERSEY

CITY           SKY/WX    TMP DP  RH WIND       PRES   REMARKS
NEWARK/LIBERTY MOSUNNY   56  39  53 NE7       30.20F
TETERBORO      CLOUDY    56  37  49 VRB3      30.19F
CALDWELL       SUNNY     55  38  52 VRB3      30.20F
MORRISTOWN     NOT AVBL
SOMERVILLE     MOSUNNY   54  39  57 CALM      30.19F
SUSSEX         MOSUNNY   54  41  61 CALM      30.19F
ANDOVER          N/A     55  42  61 VRB5      30.19F
TRENTON        CLOUDY    55  42  61 CALM      30.20F
MILLVILLE      CLOUDY    53  42  66 NE5       30.21R
ATLANTIC CITY  CLOUDY    54  41  61 NE7       30.21R
WRIGHTSTOWN    CLOUDY    51  41  68 VRB3      30.19S
TOMS RIVER     CLOUDY    52  39  62 NE5       30.22R
BELMAR         CLOUDY    52  41  66 N6        30.22S
$$

PAZ047>061-062-071-301600-
EASTERN PENNSYLVANIA

CITY           SKY/WX    TMP DP  RH WIND       PRES   REMARKS
PHILADELPHIA   PTSUNNY   56  41  57 E7        30.22S
ALLENTOWN      CLOUDY    54  41  61 NE5       30.22R
SCRANTON       CLOUDY    50  41  71 CALM      30.20S
$$

CTZ002-004>006-009-010-012-RIZ004-006-007-MAZ004-011-015-301600-
SOUTHERN NEW ENGLAND
 IN CT

CITY           SKY/WX    TMP DP  RH WIND       PRES   REMARKS
BRADLEY INTL   MOSUNNY   59  39  47 N5        30.18F
HARTFORD       SUNNY     59  41  51 CALM      30.19F
DANBURY        SUNNY     58  39  49 N5        30.20F
WTRBRY/OXFORD  MOSUNNY   55  25  30 N3        30.19F
BRIDGEPORT     SUNNY     53  44  71 S6        30.21F
MERIDEN        SUNNY     60  40  47 CALM      30.19F
NEW HAVEN      MOSUNNY   53  44  71 S7        30.20F
CHESTER        FAIR      59  36  41 CALM      30.19F
GROTON         SUNNY     56  45  66 S10       30.20S
WILLIMANTIC    SUNNY     60  37  42 NW7       30.19F

 IN RI

CITY           SKY/WX    TMP DP  RH WIND       PRES   REMARKS
PROVIDENCE     MOSUNNY   58  31  35 E8        30.20F
BLOCK ISLAND   SUNNY     49  38  65 E10       30.23
WESTERLY       SUNNY     55  38  52 SE13      30.21R

 IN MA

CITY           SKY/WX    TMP DP  RH WIND       PRES   REMARKS
BOSTON         SUNNY     54  33  45 SE9       30.22F
WORCESTER      SUNNY     54  36  50 E6        30.19F
WESTFIELD      SUNNY     59  39  47 VRB5      30.18F
PROVINCETOWN   SUNNY     51  30  44 NE7       30.25F
NANTUCKET      SUNNY     54  32  43 NE20      30.21F
$$

ANZ330-335-338-340-345-350-353-355-301600-
COASTAL MARINE OBSERVATIONS


STATION/POSITION TIME  SKY/WX   TEMP    WIND        PRES    VSBY  WAVE
                                AIR SEA DIR/SP/G                  HT/PER
                 (UTC)          (F)     (DEG/KT/KT) (MB)    (MI)  (FT/S)
NY HARB ENTRANCE NOT AVBL
20S FIRE ISLAND  NOT AVBL
GREAT SOUTH BAY  1415            52 57  170/  4/  6   N/A
23 SSW MONTAUK P 1450            46 47   50/  8/ 10 1023.3          5/ 7
15 E BARNEGAT LI 1422               50                N/A           6/ 8
HUDSON CANYON    NOT AVBL
KINGS POINT      1400            49 53              1023.0
EXECUTION ROCKS  NOT AVBL
CENTRAL LI SOUND 1400            48     180/  2/  4   N/A           0
EASTERN LI SOUND 1400            51 48   40/  2/  4   N/A
ROBBINS REEF     1400            50      30/  4/  6 1022.4
$$


>>>>>>>>>>>>>>>>>>>>>>>>>>>> KEY <<<<<<<<<<<<<<<<<<<<<<<<<<<
>                                                          <
>     SKY/WX - SKY CONDITION/PRESENT WEATHER               <
>     TMP    - TEMPERATURE IN FAHRENHEIT                   <
>     DP     - DEWPOINT IN FAHRENHEIT                      <
>     RH     - RELATIVE HUMIDITY IN PERCENT                <
>     WIND   - DIRECTION AND SPEED IN MPH                  <
>     PRES   - MEAN SEA LEVEL PRESSURE IN INCHES OF HG     <
>     WCI    - WIND CHILL INDEX                            <
>     VSB    - VISIBILITY IN MILES                         <
>     HX     - HEAT INDEX                                  <
>     TC     - TEMPERATURE IN CELSIUS                      <
>     VRB    - VARIABLE WIND DIRECTION                     <
>                                                          <
>>>>>>>>>>>>>>>>>>>>>>>>>>>> KEY <<<<<<<<<<<<<<<<<<<<<<<<<<<






USA.gov is the U.S. government's official web portal to all federal, state and local government web resources and services.